Regional Weather Roundup
Issued by NWS

Home | Current Version | Previous Version | Graphics & Text | Print | Product List | Glossary Off
Versions: 1 2 3 4 5 6 7 8 9 10 11 12 13 14 15 16 17 18 19 20 21 22 23 24 25 26 27 28 29 30 31 32 33 34 35 36 37 38 39 40 41 42 43 44 45 46 47 48 49 50

000
ASUS45 KBOU 020007
RWRCO

WEATHER ROUNDUP FOR COLORADO
NATIONAL WEATHER SERVICE DENVER/BOULDER CO
600 PM MDT SUN MAY 01 2016

NOTE: "FAIR" INDICATES FEW OR NO CLOUDS BELOW 12000 FEET WITH NO
SIGNIFICANT WEATHER AND/OR OBSTRUCTIONS TO VISIBILITY.

COZ001>005-013-030-031-020100-
...NORTHWEST COLORADO...

CITY           SKY/WX    TMP DP  RH WIND       PRES   REMARKS
CRAIG          FAIR      57  24  28 E8        30.04S
HAYDEN         FAIR      52  25  35 E14       30.06R
MEEKER         CLOUDY    55  25  31 E3        30.03S
MOUNT WERNER   NOT AVBL
STEAMBOAT SPGS FAIR      49  25  38 NE15G21   30.08S
WALDEN         FAIR      36  21  55 NE26G32   30.15S
$$

COZ006>008-011-020100-
...WEST CENTRAL VALLEYS...

CITY           SKY/WX    TMP DP  RH WIND       PRES   REMARKS
GRAND JUNCTION CLOUDY    58  30  34 SE5       30.02R
MONTROSE       CLOUDY    50  32  50 NE12      30.09R
EAGLE          NOT AVBL
RIFLE          CLOUDY    56  31  38 S10       30.01R
DELTA          NOT AVBL
NUCLA          NOT AVBL
$$

COZ017>023-064>068-020100-
...SOUTHWEST COLORADO...

CITY           SKY/WX    TMP DP  RH WIND       PRES   REMARKS
DURANGO        PTSUNNY   41  37  86 E9        30.13R
CORTEZ         CLOUDY    45  38  76 SW23G29   30.09R
PAGOSA SPRINGS LGT SNOW  36  35  99 W6        30.17R
TELLURIDE      CLOUDY    35  33  91 W8        30.14R WCI  29
WOLF CREEK PAS SNOW      23  23 100 SW9       30.22R VSB 1/4 WCI  13
$$

COZ009-010-012-014-032>034-037-058>063-020100-
...CENTRAL COLORADO...

CITY           SKY/WX    TMP DP  RH WIND       PRES   REMARKS
ASPEN          CLOUDY    44  26  49 S15       30.09R
BUENA VISTA    LGT SNOW  32  30  92 E3        30.23R
COPPER MTN     NOT AVBL
BERTHOUD PASS  CLOUDY    14   5  67 MISG      30.22R
COTTONWOOD PAS HVY SNOW  30  28  93 E5        30.22S VSB<1/4 WCI  25
GUNNISON       FAIR      41  23  48 E12       30.16R
KREMMLING      FAIR      50  18  27 E10       30.12S
LEADVILLE      LGT SNOW  25  24  96 S13       30.18S FOG     WCI  14
SALIDA         CLOUDY    35  31  85 E10G16    30.30R WCI  27
SUNLIGHT       FLURRIES  32  30  93 CALM      30.20S
WILKERSON PASS LGT SNOW N/A N/A N/A E3        30.26R VSB 1
$$

COZ069>075-020100-
...SAN LUIS VALLEY/SANGRE DE CRISTO MOUNTAINS...

CITY           SKY/WX    TMP DP  RH WIND       PRES   REMARKS
ALAMOSA        FAIR      41  25  53 E21       30.15R
LA VETA PASS   FOG       23  19  86 MISG      30.22R VSB 1/4
SAGUACHE       CLOUDY    39  30  70 S9        30.17R
$$

COZ035-036-038>040-020100-
...NORTHERN COLORADO FRONT RANGE...

CITY           SKY/WX    TMP DP  RH WIND       PRES   REMARKS
DENVER INTL AP PTSUNNY   41  28  60 NW5       30.27S
DMNS CITY PARK   N/A     41  29  61 E8        30.27S
AURORA         CLOUDY    37  32  81 NW3       30.28S
FRONT RANGE AP CLOUDY    37  30  75 NW3       30.28S
ERIE MUNI ARPT CLOUDY    42  31  63 CALM      30.28S
BOULDER MUN AP CLOUDY    41  30  65 CALM      30.27S
CENTENNIAL     PTSUNNY   37  29  72 CALM      30.27S
BROOMFIELD     CLOUDY    41  32  70 S3        30.28
FORT COLLINS   CLOUDY    45  27  49 CALM      30.29R
LONGMONT       CLOUDY    46  30  55 CALM      30.29S HAZE
$$

COZ041-046-047-076>085-087-088-020100-
...PIKES PEAK/PALMER DIVIDE AND SOUTHERN FOOTHILLS...

CITY           SKY/WX    TMP DP  RH WIND       PRES   REMARKS
COLO. SPRINGS  CLOUDY    37  28  70 N13       30.27S
A. F. ACADEMY  CLOUDY    32  28  86 N12       30.26R WCI  23
SCHRIEVER AFB  NOT AVBL
ELLICOTT       NOT AVBL
FALCON         FAIR      33  28  80 N12G17    30.26S WCI  24
FORT CARSON    CLOUDY    38  29  69 N13       30.25R
LIMON          FAIR      37  28  70 NW8       30.27S
MONUMENT HILL  CLOUDY    30  28  93 NW5       30.28S WCI  25
TRINIDAD       CLOUDY    36  33  89 N7        30.26S
$$

COZ042>045-048>051-090-091-020100-
...NORTHEAST COLORADO...

CITY           SKY/WX    TMP DP  RH WIND       PRES   REMARKS
GREELEY ARPT   CLOUDY    45  27  49 NW3       30.28S
AKRON          FAIR      40  28  62 NE12      30.26S
BURLINGTON     CLOUDY    45  31  58 N10       30.23R
WRAY           NOT AVBL
STERLING       FAIR      46  30  53 N9        30.26R
HOLYOKE        NOT AVBL
FORT MORGAN    FAIR      48  22  35 N9        30.28R
$$

COZ086-089-092>099-020100-
...SOUTHEAST COLORADO...

CITY           SKY/WX    TMP DP  RH WIND       PRES   REMARKS
PUEBLO         CLOUDY    45  30  55 NE9       30.27R
LA JUNTA       CLOUDY    47  30  51 N10       30.25R
LAMAR          CLOUDY    48  33  56 N10       30.21R
SPRINGFIELD      N/A     40  34  79 N18       30.21R
$$



USA.gov is the U.S. government's official web portal to all federal, state and local government web resources and services.